TAX202 VTBD-RJSS

Flight info

Callsign TAX202
Flight time N/A
Altitude 37000
Route UPKUP3C UPKUP Y16 BUTRA A1 PAPRA/K0874F370 A1 IKELA/N0470F370 DCT MORTU DCT NOBAD DCT KAPLI G86 HCN J7 PICHU Q13 IGURU/N0467F390 Y26 SEPIA B597 SUC V53 KTE V38 YME Y381 KMC Y515 LANCE
Aircraft A339/H-SADE1E2E3GHIJ3J5M1P2RWXY/LB2D1

Departure

Time 2026-04-28 20:23
Airport Don Mueang International Airport (VTBD)

Arrival

Time N/A
Airport Sendai Airport (RJSS)
Time Latitude Longitude Altitude Speed Heading
2026-04-28 20:06 13.92366 100.60579 24 ft 0 kts 298°
2026-04-28 20:14 13.92360 100.60589 24 ft 2 kts 298°
2026-04-28 20:14 13.92353 100.60603 24 ft 2 kts 298°
2026-04-28 20:14 13.92346 100.60616 24 ft 2 kts 298°
2026-04-28 20:14 13.92337 100.60628 24 ft 2 kts 332°
2026-04-28 20:15 13.92322 100.60632 24 ft 2 kts
2026-04-28 20:15 13.92313 100.60630 24 ft 0 kts 28°
2026-04-28 20:15 13.92308 100.60627 24 ft 0 kts 29°
2026-04-28 20:17 13.92322 100.60635 24 ft 7 kts 29°
2026-04-28 20:17 13.92442 100.60702 24 ft 26 kts 28°
2026-04-28 20:18 13.92604 100.60792 24 ft 26 kts 29°
2026-04-28 20:18 13.92745 100.60873 24 ft 14 kts 30°
2026-04-28 20:18 13.92763 100.60883 24 ft 2 kts 30°
2026-04-28 20:19 13.92772 100.60889 24 ft 0 kts 30°
2026-04-28 20:20 13.92677 100.60843 24 ft 0 kts 30°
2026-04-28 20:20 13.92688 100.60849 24 ft 1 kts 34°
2026-04-28 20:20 13.92703 100.60865 24 ft 4 kts 45°
2026-04-28 20:20 13.92731 100.60899 24 ft 7 kts 58°
2026-04-28 20:21 13.92728 100.60954 24 ft 9 kts 116°
2026-04-28 20:21 13.92687 100.61010 24 ft 9 kts 119°
2026-04-28 20:21 13.92657 100.61072 24 ft 10 kts 115°
2026-04-28 20:21 13.92622 100.61143 24 ft 12 kts 118°
2026-04-28 20:22 13.92579 100.61203 24 ft 6 kts 161°
2026-04-28 20:22 13.92542 100.61189 24 ft 6 kts 210°
2026-04-28 20:22 13.92407 100.61113 24 ft 50 kts 208°
2026-04-28 20:22 13.91915 100.60841 24 ft 107 kts 208°
2026-04-28 20:23 13.91108 100.60388 24 ft 154 kts 208°
2026-04-28 20:23 13.90079 100.59818 282 ft 172 kts 208°
2026-04-28 20:23 13.89042 100.59206 798 ft 173 kts 211°
2026-04-28 20:23 13.88014 100.58554 1340 ft 176 kts 213°
2026-04-28 20:24 13.86999 100.57862 1910 ft 176 kts 217°
2026-04-28 20:24 13.86261 100.56861 2172 ft 185 kts 253°
2026-04-28 20:24 13.85968 100.55538 2422 ft 197 kts 257°
2026-04-28 20:24 13.85659 100.54098 2666 ft 211 kts 256°
2026-04-28 20:25 13.85282 100.52589 2928 ft 226 kts 255°
2026-04-28 20:25 13.84836 100.50971 3199 ft 242 kts 254°
2026-04-28 20:25 13.84327 100.49286 3474 ft 257 kts 248°
2026-04-28 20:25 13.83445 100.47652 3917 ft 266 kts 234°
2026-04-28 20:26 13.82222 100.46212 4513 ft 268 kts 228°
2026-04-28 20:26 13.80915 100.44808 5055 ft 272 kts 227°
2026-04-28 20:26 13.79596 100.43403 5609 ft 275 kts 227°
2026-04-28 20:26 13.78079 100.42201 6124 ft 281 kts 203°
2026-04-28 20:27 13.76155 100.41847 6700 ft 285 kts 177°
2026-04-28 20:27 13.74189 100.42040 7262 ft 288 kts 174°
2026-04-28 20:27 13.72185 100.42268 7830 ft 291 kts 174°
2026-04-28 20:27 13.70155 100.42487 8388 ft 294 kts 174°
2026-04-28 20:28 13.68117 100.42692 8932 ft 296 kts 174°
2026-04-28 20:28 13.66056 100.43031 9475 ft 299 kts 159°
2026-04-28 20:28 13.64316 100.44166 10025 ft 298 kts 132°
2026-04-28 20:28 13.63202 100.45958 10422 ft 304 kts 108°
2026-04-28 20:29 13.62752 100.48112 10644 ft 317 kts 98°
2026-04-28 20:29 13.62397 100.50401 10902 ft 331 kts 98°
2026-04-28 20:29 13.62008 100.52794 11130 ft 346 kts 99°
2026-04-28 20:29 13.61609 100.55284 11341 ft 359 kts 96°
2026-04-28 20:30 13.61464 100.57868 11674 ft 369 kts 89°
2026-04-28 20:30 13.61653 100.60498 12192 ft 372 kts 82°
2026-04-28 20:30 13.61863 100.62051 12502 ft 374 kts 82°
2026-04-28 20:31 13.62542 100.66583 13396 ft 379 kts 81°
2026-04-28 20:31 13.63042 100.69905 14002 ft 384 kts 81°
2026-04-28 20:31 13.63642 100.73953 14734 ft 389 kts 82°
2026-04-28 20:31 13.64045 100.76705 15207 ft 392 kts 82°
2026-04-28 20:32 13.64451 100.79493 15674 ft 395 kts 82°
2026-04-28 20:32 13.64859 100.82295 16130 ft 398 kts 82°
2026-04-28 20:32 13.65267 100.85108 16572 ft 402 kts 82°
2026-04-28 20:32 13.65680 100.87950 17008 ft 405 kts 82°
2026-04-28 20:33 13.66098 100.90833 17445 ft 408 kts 82°
2026-04-28 20:33 13.66545 100.93717 17883 ft 412 kts 78°
2026-04-28 20:33 13.67433 100.96502 18326 ft 415 kts 65°
2026-04-28 20:33 13.68857 100.99078 18806 ft 416 kts 54°
2026-04-28 20:34 13.70645 101.01444 19275 ft 417 kts 50°
2026-04-28 20:34 13.72487 101.03767 19720 ft 420 kts 50°
2026-04-28 20:34 13.74336 101.06096 20177 ft 422 kts 50°
2026-04-28 20:34 13.76169 101.08420 20634 ft 423 kts 50°
2026-04-28 20:35 13.78023 101.10787 21067 ft 425 kts 50°
2026-04-28 20:35 13.79893 101.13183 21486 ft 428 kts 50°
2026-04-28 20:35 13.81753 101.15570 21902 ft 430 kts 50°
2026-04-28 20:35 13.83609 101.17956 22313 ft 432 kts 50°
2026-04-28 20:36 13.85500 101.20389 22707 ft 434 kts 50°
2026-04-28 20:36 13.87398 101.22832 23076 ft 436 kts 50°
2026-04-28 20:36 13.89283 101.25259 23412 ft 439 kts 49°
2026-04-28 20:36 13.91276 101.27651 23742 ft 442 kts 46°
2026-04-28 20:37 13.93337 101.29993 24083 ft 445 kts 46°
2026-04-28 20:37 13.95444 101.32371 24427 ft 447 kts 46°
2026-04-28 20:37 13.97531 101.34727 24772 ft 449 kts 46°
2026-04-28 20:37 13.99656 101.37131 25095 ft 452 kts 46°
2026-04-28 20:38 14.01787 101.39543 25421 ft 455 kts 45°
2026-04-28 20:38 14.03893 101.41961 25719 ft 458 kts 49°
2026-04-28 20:38 14.05696 101.44668 26000 ft 465 kts 59°
2026-04-28 20:38 14.07036 101.47732 26301 ft 470 kts 69°
2026-04-28 20:39 14.07880 101.50983 26589 ft 474 kts 76°
2026-04-28 20:39 14.08579 101.54309 26885 ft 477 kts 77°
2026-04-28 20:39 14.09251 101.57615 27199 ft 479 kts 77°
2026-04-28 20:39 14.09708 101.59860 27386 ft 480 kts 76°